Fayetteville, NC

1:31 AM EDT on July 21, 2017 (GMT -0400)
Fayetteville Regional-Grannis

Weather History for KFAY - May, 2014

Change the Weather History Date:

Sunday, May 11, 2014

  Actual Average Record
Temperature  
Mean Temperature 77 °F 69 °F  
Max Temperature 86 °F 81 °F 97 °F (1916)
Min Temperature 67 °F 57 °F 34 °F (1966)
Degree Days  
Heating Degree Days 0 1  
Month to date heating degree days 2 17  
Since 1 July heating degree days 2931 2724  
Cooling Degree Days 12 5  
Month to date cooling degree days 96 49  
Year to date cooling degree days 177 132  
Growing Degree Days 26 (Base 50)    
Moisture  
Dew Point 65 °F    
Average Humidity 69    
Maximum Humidity 93    
Minimum Humidity 45    
Precipitation  
Precipitation 0.03 in 0.09 in 1.52 in (1949)
Month to date precipitation 0.03 0.82  
Year to date precipitation 14.37 13.25  
Sea Level Pressure  
Sea Level Pressure 30.08 in    
Wind  
Wind Speed 5 mph (SSW)    
Max Wind Speed 12 mph    
Max Gust Speed 14 mph    
Visibility 10 miles    
Events Rain    
T = Trace of Precipitation, MM = Missing Value Source: NWS Daily Summary

Daily Weather History Graph

Daily Weather History Graph

Search for Another Location

Airport or City:

Trip Planner

Search our weather history database for the weather conditions in past years. The results will help you decide how hot, cold, wet, or windy it might be!

Date:

Astronomy

May. 11, 2014 Rise Set
Actual Time 6:15 AM EDT 8:09 PM EDT
Civil Twilight 5:47 AM EDT 8:36 PM EDT
Nautical Twilight 5:13 AM EDT 9:10 PM EDT
Astronomical Twilight 4:37 AM EDT 9:46 PM EDT
Moon 5:10 PM EDT (5/11) 4:11 AM EDT (5/11)
Length of Visible Light 14h 49m
Length of Day
13h 53m
Waxing Gibbous, 89% of the Moon is Illuminated
May 11
Waxing Gibbous
May 14
Full
May 21
Last Quarter
May 28
New
Jun 5
First Quarter

Hourly Weather History & Observations

Time (EDT) Temp. Heat Index Dew Point Humidity Pressure Visibility Wind Dir Wind Speed Gust Speed Precip Events Conditions
12:53 AM 70.0 °F - 61.0 °F 73% 30.06 in 8.0 mi South 4.6 mph - N/A   Clear
1:53 AM 72.0 °F - 64.0 °F 76% 30.05 in 10.0 mi SSW 5.8 mph - N/A   Mostly Cloudy
2:53 AM 71.1 °F - 64.9 °F 81% 30.04 in 10.0 mi SSW 8.1 mph - N/A   Partly Cloudy
3:53 AM 70.0 °F - 64.9 °F 84% 30.04 in 10.0 mi SSW 6.9 mph - N/A   Clear
4:53 AM 68.0 °F - 64.9 °F 90% 30.05 in 10.0 mi SSW 5.8 mph - N/A   Clear
5:53 AM 66.9 °F - 64.9 °F 93% 30.05 in 9.0 mi SSW 5.8 mph - N/A   Clear
6:53 AM 68.0 °F - 64.9 °F 90% 30.07 in 8.0 mi SW 5.8 mph - N/A   Clear
7:53 AM 71.1 °F - 64.9 °F 81% 30.10 in 10.0 mi West 6.9 mph - N/A   Partly Cloudy
8:53 AM 73.9 °F - 64.9 °F 73% 30.11 in 10.0 mi WSW 10.4 mph - N/A   Clear
9:53 AM 78.1 °F - 64.9 °F 64% 30.12 in 10.0 mi WNW 6.9 mph - N/A   Clear
10:53 AM 79.0 °F - 64.9 °F 62% 30.13 in 10.0 mi Calm Calm - N/A   Partly Cloudy
11:53 AM 82.0 °F 83.8 °F 64.9 °F 56% 30.12 in 10.0 mi Variable 3.5 mph - N/A   Mostly Cloudy
12:53 PM 77.0 °F - 66.9 °F 71% 30.11 in 5.0 mi North 8.1 mph - 0.02 in Rain Rain
2:53 PM 84.0 °F 85.8 °F 64.9 °F 53% 30.09 in 10.0 mi Variable 3.5 mph - 0.00 in   Clear
3:53 PM 84.9 °F 86.6 °F 64.9 °F 51% 30.07 in 10.0 mi East 5.8 mph - N/A   Mostly Cloudy
4:42 PM 84.9 °F 86.6 °F 64.9 °F 51% 30.08 in 10.0 mi East 6.9 mph - N/A   Scattered Clouds
4:53 PM 86.0 °F 87.6 °F 64.9 °F 49% 30.06 in 10.0 mi East 6.9 mph - N/A   Clear
5:53 PM 86.0 °F 86.8 °F 63.0 °F 46% 30.06 in 10.0 mi Calm Calm - N/A   Partly Cloudy
6:53 PM 84.0 °F 86.3 °F 66.0 °F 55% 30.06 in 10.0 mi Calm Calm - N/A   Partly Cloudy
7:53 PM 81.0 °F 82.7 °F 64.9 °F 58% 30.07 in 10.0 mi ESE 4.6 mph - N/A   Clear
8:53 PM 78.1 °F - 66.9 °F 68% 30.09 in 10.0 mi South 9.2 mph - N/A   Mostly Cloudy
9:53 PM 75.9 °F - 68.0 °F 76% 30.12 in 10.0 mi South 6.9 mph - N/A   Clear
10:53 PM 73.9 °F - 68.0 °F 82% 30.13 in 10.0 mi South 3.5 mph - N/A   Clear
11:53 PM 73.0 °F - 68.0 °F 84% 30.13 in 10.0 mi WSW 4.6 mph - N/A   Clear